{"data":{"norad_id":62684,"epoch":"2026-05-25T04:33:00.132768Z","epoch_age_seconds":62211,"freshness":"FRESH","line1":"1 62684U 25009CD  26145.18958487  .00004487  00000+0  17708-3 0  9998","line2":"2 62684  97.3892 225.2195 0006776  79.4189 280.7813 15.26032825132959","mean_motion":15.26032825,"eccentricity":0.0006776,"inclination_deg":97.3892,"raan_deg":225.2195,"arg_perigee_deg":79.4189,"mean_anomaly_deg":280.7813,"bstar":0.00017708,"rev_number":13295,"period_min":94.362321465792,"perigee_km":483.03352675968,"apogee_km":492.33808982948,"semimajor_km":6865.8228082946,"source":"CELESTRAK","updated_at":"2026-05-25T13:38:03.168930Z"}}